When you browse on this site, cookies collect data to enhance your experience and personalize the content and advertising you see.
Visit our Privacy Policy to learn more. By continuing to use the site, you agree to this use of cookies and data.
  • In Germany
  • List of Countries
  • For 7 days
  • Water Temperature
  • Weather Map
  • Weather Widgets
  • user-avatar
    Login

    Hourly Weather Pyshminskaya

    Today, 17 October, Thursday

    Time Temperature Precipitation Wind Pressure Humidity
    00:00 -3°C° 0 mm 4 mps 738 mmHg 84%
    01:00 -3°C° 0 mm 4 mps 739 mmHg 84%
    02:00 -3°C° 0 mm 4 mps 739 mmHg 83%
    03:00 -3°C° 0 mm 4 mps 740 mmHg 83%
    04:00 -2°C° 0 mm 3 mps 740 mmHg 84%
    05:00 -2°C° 0 mm 3 mps 741 mmHg 83%
    06:00 -2°C° 0 mm 3 mps 741 mmHg 83%
    07:00 -2°C° 0 mm 4 mps 741 mmHg 82%
    08:00 -2°C° 0 mm 4 mps 741 mmHg 78%
    09:00 -2°C° 0 mm 4 mps 741 mmHg 75%
    10:00 -1°C° 0 mm 4 mps 741 mmHg 71%
    11:00 -1°C° 0 mm 4 mps 741 mmHg 70%
    12:00 -1°C° 0 mm 4 mps 741 mmHg 68%
    13:00 0°C° 0 mm 4 mps 741 mmHg 67%
    14:00 0°C° 0 mm 3 mps 741 mmHg 68%
    15:00 0°C° 0 mm 3 mps 741 mmHg 70%
    16:00 +1°C° 0 mm 2 mps 741 mmHg 72%
    17:00 +1°C° 0.1 mm 2 mps 741 mmHg 79%
    18:00 -1°C° 0.1 mm 2 mps 741 mmHg 85%
    19:00 -1°C° 0.1 mm 2 mps 740 mmHg 92%
    20:00 -1°C° 0.5 mm 2 mps 740 mmHg 94%
    21:00 -1°C° 0.5 mm 2 mps 740 mmHg 95%
    22:00 +1°C° 0.5 mm 1 mps 739 mmHg 97%
    23:00 -1°C° 0.4 mm 2 mps 739 mmHg 97%

    Tomorrow, 18 October, Friday

    Time Temperature Precipitation Wind Pressure Humidity
    00:00 -1°C° 0.4 mm 2 mps 738 mmHg 97%
    01:00 -1°C° 0.4 mm 2 mps 737 mmHg 97%
    02:00 -1°C° 0.8 mm 2 mps 737 mmHg 97%
    03:00 -1°C° 0.8 mm 2 mps 736 mmHg 97%
    04:00 -1°C° 0.8 mm 2 mps 736 mmHg 98%
    05:00 -1°C° 0.7 mm 2 mps 735 mmHg 98%
    06:00 -1°C° 0.7 mm 2 mps 734 mmHg 98%
    07:00 +2°C° 0.7 mm 1 mps 734 mmHg 98%
    08:00 +2°C° 0.4 mm 1 mps 734 mmHg 98%
    09:00 +2°C° 0.4 mm 1 mps 734 mmHg 98%
    10:00 +3°C° 0.4 mm 1 mps 734 mmHg 99%
    11:00 +3°C° 0.3 mm 1 mps 734 mmHg 98%
    12:00 +3°C° 0.3 mm 1 mps 734 mmHg 98%
    13:00 +2°C° 0.3 mm 2 mps 734 mmHg 98%
    14:00 +1°C° 0.4 mm 2 mps 734 mmHg 98%
    15:00 0°C° 0.4 mm 3 mps 734 mmHg 97%
    16:00 0°C° 0.4 mm 3 mps 734 mmHg 97%
    17:00 -1°C° 0.3 mm 4 mps 735 mmHg 96%
    18:00 -2°C° 0.3 mm 4 mps 735 mmHg 95%
    19:00 -2°C° 0.3 mm 5 mps 735 mmHg 94%
    20:00 -2°C° 0 mm 4 mps 736 mmHg 93%
    21:00 -3°C° 0 mm 4 mps 737 mmHg 93%
    22:00 -3°C° 0 mm 4 mps 737 mmHg 92%
    23:00 -3°C° 0 mm 4 mps 738 mmHg 91%

    Day after tomorrow, 19 October, Saturday

    Time Temperature Precipitation Wind Pressure Humidity
    00:00 -4°C° 0 mm 4 mps 738 mmHg 91%
    01:00 -4°C° 0 mm 4 mps 739 mmHg 90%
    02:00 -5°C° 0 mm 4 mps 739 mmHg 90%
    03:00 -5°C° 0 mm 3 mps 740 mmHg 89%
    04:00 -6°C° 0 mm 3 mps 741 mmHg 88%
    05:00 -7°C° 0 mm 3 mps 741 mmHg 90%
    06:00 -7°C° 0 mm 3 mps 741 mmHg 92%
    07:00 -8°C° 0 mm 3 mps 742 mmHg 94%
    08:00 -7°C° 0 mm 3 mps 742 mmHg 89%
    09:00 -6°C° 0 mm 3 mps 743 mmHg 84%
    10:00 -5°C° 0 mm 3 mps 744 mmHg 79%
    11:00 -4°C° 0 mm 3 mps 744 mmHg 76%
    12:00 -2°C° 0 mm 3 mps 744 mmHg 74%
    13:00 -2°C° 0 mm 3 mps 744 mmHg 72%
    14:00 -2°C° 0 mm 2 mps 744 mmHg 75%
    15:00 -3°C° 0 mm 2 mps 744 mmHg 78%
    16:00 -3°C° 0 mm 2 mps 745 mmHg 81%
    17:00 -4°C° 0 mm 2 mps 745 mmHg 84%
    18:00 -5°C° 0 mm 2 mps 745 mmHg 87%
    19:00 -4°C° 0 mm 1 mps 746 mmHg 91%
    20:00 -4°C° 0 mm 1 mps 746 mmHg 91%
    21:00 -4°C° 0 mm 1 mps 746 mmHg 92%
    22:00 -6°C° 0 mm 1 mps 746 mmHg 93%
    23:00 -6°C° 0 mm 1 mps 746 mmHg 93%

    20 October, Sunday

    Time Temperature Precipitation Wind Pressure Humidity
    00:00 -6°C° 0 mm 1 mps 746 mmHg 94%
    01:00 -6°C° 0 mm 1 mps 746 mmHg 94%
    02:00 -6°C° 0 mm 1 mps 747 mmHg 94%
    03:00 -7°C° 0 mm 2 mps 747 mmHg 94%
    04:00 -7°C° 0 mm 2 mps 747 mmHg 94%
    05:00 -7°C° 0 mm 2 mps 747 mmHg 94%
    06:00 -7°C° 0 mm 2 mps 747 mmHg 93%
    07:00 -7°C° 0 mm 2 mps 747 mmHg 93%
    08:00 -6°C° 0 mm 3 mps 747 mmHg 87%
    09:00 -5°C° 0 mm 3 mps 747 mmHg 82%
    10:00 -2°C° 0 mm 3 mps 747 mmHg 76%
    11:00 -1°C° 0 mm 3 mps 747 mmHg 75%
    12:00 0°C° 0 mm 3 mps 746 mmHg 74%
    13:00 +1°C° 0 mm 3 mps 746 mmHg 74%
    14:00 +1°C° 0 mm 3 mps 746 mmHg 77%
    15:00 +1°C° 0 mm 2 mps 746 mmHg 81%
    16:00 +1°C° 0 mm 2 mps 746 mmHg 85%
    17:00 +1°C° 0 mm 2 mps 745 mmHg 86%
    18:00 -1°C° 0 mm 2 mps 745 mmHg 88%
    19:00 -1°C° 0 mm 3 mps 745 mmHg 89%
    20:00 -1°C° 0 mm 3 mps 745 mmHg 89%
    21:00 0°C° 0 mm 3 mps 744 mmHg 89%
    22:00 0°C° 0 mm 3 mps 744 mmHg 89%
    23:00 0°C° 0 mm 3 mps 744 mmHg 89%

    21 October, Monday

    Time Temperature Precipitation Wind Pressure Humidity
    00:00 +1°C° 0 mm 3 mps 743 mmHg 90%
    01:00 +1°C° 0 mm 3 mps 743 mmHg 90%
    02:00 +1°C° 0 mm 3 mps 743 mmHg 90%
    03:00 0°C° 0 mm 4 mps 742 mmHg 90%
    04:00 0°C° 0 mm 4 mps 742 mmHg 90%
    05:00 0°C° 0 mm 4 mps 741 mmHg 89%
    06:00 +1°C° 0 mm 4 mps 741 mmHg 88%
    07:00 +1°C° 0 mm 5 mps 740 mmHg 88%
    08:00 +1°C° 0.2 mm 5 mps 740 mmHg 88%
    09:00 +1°C° 0.2 mm 5 mps 739 mmHg 88%
    10:00 +2°C° 0.2 mm 5 mps 739 mmHg 88%
    11:00 +2°C° 0 mm 5 mps 739 mmHg 89%
    12:00 +2°C° 0 mm 5 mps 739 mmHg 89%
    13:00 +2°C° 0 mm 5 mps 738 mmHg 90%
    14:00 +2°C° 0.1 mm 5 mps 738 mmHg 91%
    15:00 +2°C° 0.1 mm 5 mps 738 mmHg 91%
    16:00 +2°C° 0.1 mm 5 mps 738 mmHg 92%
    17:00 +2°C° 0.1 mm 5 mps 738 mmHg 93%
    18:00 +3°C° 0.1 mm 4 mps 738 mmHg 93%
    19:00 +4°C° 0.1 mm 4 mps 737 mmHg 93%
    20:00 +4°C° 0.1 mm 4 mps 737 mmHg 93%
    21:00 +4°C° 0.1 mm 4 mps 737 mmHg 94%
    22:00 +4°C° 0.1 mm 4 mps 736 mmHg 94%
    23:00 +4°C° 0.1 mm 4 mps 735 mmHg 94%

    22 October, Tuesday

    Time Temperature Precipitation Wind Pressure Humidity
    00:00 +4°C° 0.1 mm 4 mps 735 mmHg 94%
    01:00 +4°C° 0.1 mm 4 mps 734 mmHg 93%
    02:00 +5°C° 0.5 mm 5 mps 733 mmHg 93%
    03:00 +5°C° 0.5 mm 5 mps 732 mmHg 92%
    04:00 +6°C° 0.5 mm 5 mps 732 mmHg 91%
    05:00 +5°C° 0.7 mm 6 mps 731 mmHg 90%
    06:00 +7°C° 0.7 mm 6 mps 731 mmHg 89%
    07:00 +6°C° 0.7 mm 7 mps 730 mmHg 88%
    08:00 +7°C° 0.3 mm 6 mps 730 mmHg 88%
    09:00 +8°C° 0.3 mm 6 mps 730 mmHg 87%
    10:00 +8°C° 0.3 mm 6 mps 730 mmHg 86%
    11:00 +9°C° 0 mm 6 mps 730 mmHg 84%
    12:00 +9°C° 0 mm 5 mps 730 mmHg 82%
    13:00 +9°C° 0 mm 5 mps 731 mmHg 80%
    14:00 +9°C° 0.1 mm 5 mps 731 mmHg 82%
    15:00 +8°C° 0.1 mm 4 mps 731 mmHg 84%
    16:00 +9°C° 0.1 mm 3 mps 731 mmHg 86%
    17:00 +8°C° 0 mm 3 mps 731 mmHg 87%
    18:00 +7°C° 0 mm 3 mps 732 mmHg 89%
    19:00 +5°C° 0 mm 3 mps 732 mmHg 90%
    20:00 +5°C° 0 mm 2 mps 732 mmHg 91%
    21:00 +5°C° 0 mm 2 mps 732 mmHg 93%
    22:00 +4°C° 0 mm 2 mps 732 mmHg 94%
    23:00 +4°C° 0 mm 2 mps 732 mmHg 94%
    Show more